Preview of NWS' New Version of Forecast
This preview is not operational and should not be used for support decisions.

Regional Weather Roundup (RWR)

Issued by National Weather Service (NWS)

                            
000
ASUS43 KLSX 180307
RWRMO 

WEATHER SUMMARY FOR MISSOURI
NATIONAL WEATHER SERVICE SPRINGFIELD MO
1000 PM CDT MON JUN 17 2019

NOTE: "FAIR" INDICATES FEW OR NO CLOUDS BELOW 12,000 FEET WITH NO
       SIGNIFICANT WEATHER AND/OR OBSTRUCTIONS TO VISIBILITY.
       CURRENT SKY AND/OR WEATHER CONDITIONS ARE NOT AVAILABLE FOR
       CHILLICOTHE AND FARMINGTON.

MOZ001>031-035>038-043-044-053-054-180400-
...NORTHERN AND WESTERN MISSOURI...
  
CITY           SKY/WX    TMP DP  RH WIND       PRES   REMARKS
KANSAS CTY INT PTCLDY    74  67  78 E10       29.93R                  
KANSAS C DTWN  PTCLDY    77  66  68 E10       29.92R                  
LEE'S SUMMIT   CLEAR     71  65  81 E5        29.94R                  
ST JOSEPH      CLEAR     76  59  55 E8        29.93R                  
CHILLICOTHE      N/A     72  64  76 E3        29.96R                  
KIRKSVILLE     CLEAR     66  63  90 NE6       29.98R                  
     
$$
MOZ066>068-077>081-088>096-101>105-180400-
...SOUTHWEST MISSOURI...
  
CITY           SKY/WX    TMP DP  RH WIND       PRES   REMARKS
SPRINGFIELD    MOCLDY    72  65  78 NE5       29.92S                  
JOPLIN         MOCLDY    72  67  84 E3        29.92R                  
BRANSON        CLOUDY    68  68 100 CALM      29.94R                  
               
$$
MOZ032>034-039>042-045>050-055>058-069>072-180400-
...CENTRAL MISSOURI...  
  
CITY           SKY/WX    TMP DP  RH WIND       PRES   REMARKS
COLUMBIA       PTCLDY    67  64  90 N3        29.96R                  
ROLLA          PTCLDY    66  63  90 E6        29.96R                  
SEDALIA        CLEAR     65  65 100 SE6       29.96S                  
WHITEMAN AFB   PTCLDY    67  67 100 SE3       29.91R                  
WARRENSBURG    CLEAR     68  64  88 E5        29.94S                  
OSAGE BEACH    CLOUDY    65  65 100 N3        29.96R                  
               
$$
MOZ051-052-059>065-180400-
...EAST CENTRAL MISSOURI...
  
CITY           SKY/WX    TMP DP  RH WIND       PRES   REMARKS
ST LOUIS INTL  CLOUDY    72  68  87 NE5       29.95R FOG              
SPIRIT OF STL  CLOUDY    72  69  90 N3        29.93R                  
ST CHARLES       N/A    N/A N/A N/A MISG      29.93R                  
                   
$$
MOZ072>076-082>087-097>100-106>115-180400-
...SOUTH CENTRAL AND SOUTHEAST MISSOURI...
  
CITY           SKY/WX    TMP DP  RH WIND       PRES   REMARKS
CAPE GIRARDEAU FAIR      72  67  84 SW5       29.91S                  
FARMINGTON     CLEAR     67  67 100 CALM      29.95R                  
POPLAR BLUFF   CLOUDY    73  71  93 CALM      29.91R                  
WEST PLAINS    CLOUDY    71  68  90 NE6       29.95R                  
                                       
$$